Location: Kumla
(59.1265°N, 15.1401°E)
Time: 02:19:57
(UTC+01:00)

Vanguard 2 Rocket - Pass Details

Date: 08 December 2023
Orbit: 554 x 3310 km, 32.9° (Epoch: 20 February)

Event Time Altitude Azimuth Distance (km) Brightness Sun altitude
Rises 20:06:58 0° 267° (W) 7,289 12.4 -36.6°
Reaches altitude 10° 20:18:19 10° 239° (WSW) 6,140 11.5 -38.0°
Maximum altitude 20:22:05 11° 228° (SW) 5,927 11.2 -38.4°
Drops below altitude 10° 20:25:42 10° 216° (SW) 5,833 11.1 -38.8°
Sets 20:35:18 0° 186° (S) 6,187 11.0 -40.0°
